Vertical_Velocity
-0 1 -3 -2 1 1 -1 -0 0 -0 -2 -3 0 0 1 0 0 1 2 1 2 3 -3 4 -8 5 4 -4 -7 6 4 -3 -0 -1 -1 -7 -8 -2 -6 -4 2 -3 -2 -0 3
2 1 -1 -2 1 1 -0 1 1 -1 -2 -2 1 0 -1 0 2 -1 2 3 4 6 3 10 -8 6 -1 8 3 2 2 -3 3 11 5 0 5 3 4 4 4 0 -2 0 4
1 1 -2 -1 2 -0 -1 3 2 -0 -3 0 -1 -0 -0 -1 -1 1 4 4 4 7 3 1 -6 6 -1 1 7 -4 5 1 0 -1 -4 -3 3 -2 4 1 2 2 2 -0 -1
-0 -0 -0 0 2 -1 -1 1 1 0 -1 1 -1 -1 -2 -1 2 1 2 5 6 1 11 6 8 5 6 7 3 -7 -1 5 1 -3 1 -3 2 11 1 5 -3 -1 2 2 -0
1 -1 -1 -1 1 -0 1 -2 -0 -1 -0 1 -3 -4 -0 2 2 7 -1 2 1 -2 -3 2 1 6 5 4 -1 -4 2 -2 -5 -2 4 -8 11 -0 2 3 -2 -3 -2 1 -3
1 -2 -0 -2 2 1 -1 0 1 1 -2 -0 -2 -1 3 0 2 -2 -6 0 -1 -1 -3 1 -0 3 5 4 3 -2 -1 -3 -4 0 4 -4 3 -2 -2 0 -1 0 -2 -2 -2
-0 -0 0 2 3 1 -3 2 -1 -3 -1 -1 0 1 3 5 1 5 -3 -2 -4 -7 -5 -7 -4 -3 -2 -3 3 2 0 4 4 4 -1 0 -1 -6 -9 -4 -3 -2 2 3 2
0 -4 -2 2 2 -0 -1 1 -1 1 -0 -0 1 3 1 -0 -1 1 1 -2 3 7 7 3 -3 -1 4 -2 9 -2 1 4 4 -1 2 4 -4 2 -4 1 0 2 -3 -4 1
-0 -2 -0 2 1 1 1 0 -0 1 0 -1 1 1 2 -2 2 3 0 1 5 7 2 -1 1 1 0 -1 -4 -4 -3 -3 -4 0 1 3 -8 -3 1 2 -5 -6 6 3 -2
-5 -2 -0 -3 1 -1 1 -0 2 1 -1 1 3 3 3 4 4 5 6 5 2 1 5 -3 -0 4 -1 -1 -5 0 -0 -1 -4 -2 -6 -5 1 6 4 5 3 -2 -10 -2 1
-3 -1 -0 -1 1 3 3 1 2 -0 4 6 -2 -1 -1 0 3 2 0 -2 2 5 -3 -6 -6 -4 -1 3 2 1 -3 0 -6 4 5 -1 -13 -1 1 -2 -1 1 5 -1 -4
-1 0 -4 1 2 0 -2 0 3 -4 -1 4 4 3 2 1 2 3 -3 -1 -3 1 -1 -1 0 3 3 2 4 4 4 2 4 0 -5 2 -3 -1 -4 2 3 5 1 1 -1
-0 -2 -1 -2 -2 0 2 2 3 2 -1 0 -1 7 -5 -0 -1 -3 -1 1 4 1 -2 -1 -1 -3 0 -1 -1 -1 -4 -2 -1 4 2 -1 -0 0 -0 2 6 5 2 -0 -3
-3 -1 -1 -5 -1 3 3 2 2 3 -1 7 1 2 1 3 5 2 3 -0 -0 -3 2 3 -5 -2 -1 -0 -1 1 5 2 0 5 6 1 -3 -3 -3 3 5 4 10 3 -0
-2 -0 -3 2 4 2 1 1 -0 -0 0 1 2 -0 1 -1 2 0 -2 1 0 2 7 5 6 2 1 1 1 1 1 3 2 -1 3 -4 2 -7 -5 -3 2 2 2 9 4
-1 -3 -2 3 1 2 5 2 1 -2 -2 -2 1 0 1 1 2 4 2 -1 -0 3 6 -0 1 1 2 2 2 4 2 0 0 -2 0 2 -4 -1 -2 -0 -1 -1 -2 2 0
0 -1 3 2 3 4 1 3 2 -2 -3 4 2 2 2 1 1 -0 3 2 5 4 1 1 -1 1 2 1 -0 0 0 -2 -3 -2 -0 -3 -3 0 -3 -4 -2 -0 1 2 1
-1 2 3 -0 3 3 1 -1 -0 -1 -1 -1 0 0 1 2 0 0 2 1 -0 -0 1 1 -2 0 0 -2 -2 -0 -0 -1 -1 -1 -4 -4 -2 3 -3 -5 -3 -8 -7 -7 -7
2 0 2 0 1 0 -0 -3 -1 -3 4 3 -0 2 1 0 1 0 -0 -1 -2 -1 1 2 -2 -2 -2 -2 -1 -2 -2 -0 -1 -2 -5 -2 -2 -2 -4 3 3 5 18 17 11
-0 3 1 0 1 -2 -3 -2 1 2 3 -0 -3 -1 -2 -1 0 1 -2 -0 -1 -1 -0 -1 -1 0 -1 -0 -0 -0 -1 -2 -0 -2 -3 -4 -4 -4 -9 -5 -2 -1 -0 0 -0
-0 1 -0 0 1 -4 -2 -3 1 0 -1 -3 0 -1 5 -0 -1 0 2 -0 -1 -2 -1 -1 -1 1 -0 -0 -1 -1 -2 -0 1 -2 -5 -2 -2 -2 -0 1 -2 0 -1 1 2
0 -1 -1 0 -3 -1 -2 -1 3 2 -1 -3 1 -1 2 -1 1 1 -1 -1 2 -2 -0 1 -0 -2 0 -0 1 2 0 -2 -1 -3 -4 -1 -3 -6 -4 -2 3 -3 -5 -3 -1
3 -3 -0 1 -3 1 -4 0 1 1 0 -0 3 -1 0 -1 0 0 -0 -0 -1 -1 -1 -1 1 -1 0 2 1 1 2 2 5 1 -1 -1 -2 -2 -7 -8 -5 -9 -3 -2 -1
-2 -4 -4 -2 0 -4 -4 1 3 -2 -1 1 1 -2 0 -0 0 -2 1 -0 1 1 -0 -0 1 2 1 3 3 0 1 -3 -3 -4 -3 -4 4 -6 -4 1 3 1 0 0 -1
-3 -0 9 -1 -1 -4 1 4 2 -1 0 1 -0 -1 2 -1 2 0 1 0 1 1 1 1 2 0 0 2 0 1 -1 -2 -3 -4 -1 0 -0 3 4 -1 -1 3 1 2 2
3 -2 -2 2 -8 -1 2 2 0 -0 4 4 -0 -1 1 3 2 -0 3 2 2 1 2 1 1 -1 -0 1 -0 1 0 -1 -1 2 1 -7 -3 -6 -0 1 1 -1 -3 -4 -2
-2 1 0 -2 2 -4 2 -2 2 3 -1 0 1 1 3 2 1 -0 -2 0 -1 -1 -1 -0 -0 -0 2 -1 -1 3 1 0 -1 -2 -0 -2 -2 -1 -5 -4 -3 -2 -0 0 0
Height
5775 5774 5775 5775 5775 5775 5776 5776 5775 5775 5777 5779 5781 5783 5784 5787 5790 5793 5795 5797 5798 5801 5803 5803 5801 5810 5810 5814 5819 5820 5824 5823 5825 5826 5827 5832 5834 5833 5831 5834 5834 5832 5835 5835 5835
5770 5769 5769 5770 5770 5771 5771 5771 5772 5772 5773 5776 5778 5779 5782 5785 5788 5791 5793 5794 5795 5799 5801 5804 5806 5808 5812 5814 5818 5819 5821 5822 5825 5826 5829 5831 5833 5833 5833 5834 5831 5833 5835 5834 5837
5765 5764 5764 5765 5766 5766 5766 5766 5767 5768 5770 5773 5775 5777 5780 5783 5786 5788 5790 5792 5795 5798 5801 5804 5807 5807 5808 5813 5816 5817 5820 5821 5822 5824 5831 5833 5831 5831 5834 5833 5833 5834 5836 5837 5838
5760 5759 5759 5760 5761 5761 5762 5762 5763 5764 5767 5770 5771 5775 5778 5781 5784 5785 5788 5790 5794 5797 5802 5806 5807 5809 5811 5812 5813 5816 5818 5820 5822 5827 5831 5829 5831 5833 5833 5834 5834 5835 5835 5836 5836
5754 5754 5755 5756 5756 5758 5758 5759 5760 5762 5765 5766 5770 5773 5776 5778 5780 5783 5785 5788 5791 5793 5796 5801 5803 5807 5808 5810 5812 5816 5820 5818 5822 5826 5830 5828 5832 5833 5834 5834 5834 5834 5834 5835 5836
5750 5750 5751 5751 5753 5754 5754 5756 5758 5761 5763 5765 5768 5771 5773 5776 5778 5780 5782 5786 5789 5792 5796 5801 5804 5807 5808 5808 5814 5816 5820 5821 5822 5826 5827 5828 5829 5829 5831 5832 5833 5833 5834 5834 5834
5746 5746 5746 5748 5749 5751 5752 5754 5757 5760 5762 5764 5766 5769 5772 5775 5777 5780 5783 5787 5790 5794 5797 5801 5804 5807 5810 5812 5816 5818 5820 5822 5824 5824 5826 5827 5828 5829 5830 5830 5831 5832 5832 5833 5834
5742 5739 5738 5741 5744 5747 5750 5753 5756 5758 5760 5763 5765 5768 5771 5774 5777 5781 5784 5788 5791 5796 5801 5804 5805 5809 5814 5813 5816 5818 5820 5821 5823 5824 5825 5826 5827 5829 5828 5829 5830 5829 5830 5830 5832
5738 5736 5736 5737 5740 5745 5748 5751 5754 5756 5759 5763 5766 5768 5772 5774 5778 5783 5786 5790 5796 5798 5802 5804 5807 5810 5812 5814 5816 5818 5819 5821 5822 5823 5823 5825 5826 5828 5828 5827 5827 5826 5827 5828 5827
5735 5735 5735 5737 5740 5743 5747 5750 5752 5756 5759 5763 5766 5770 5773 5778 5779 5784 5789 5793 5797 5800 5804 5805 5808 5810 5811 5814 5816 5816 5818 5819 5820 5823 5822 5821 5823 5825 5825 5826 5826 5825 5824 5822 5821
5732 5733 5732 5735 5738 5743 5746 5749 5754 5757 5760 5765 5767 5770 5772 5777 5781 5785 5789 5793 5797 5802 5803 5804 5806 5809 5812 5815 5816 5814 5816 5817 5819 5821 5822 5820 5820 5821 5822 5823 5823 5823 5822 5820 5819
5730 5732 5733 5735 5739 5742 5745 5749 5753 5757 5761 5766 5769 5772 5776 5779 5784 5787 5791 5795 5798 5800 5801 5804 5807 5810 5811 5813 5814 5815 5816 5817 5820 5822 5822 5820 5820 5820 5821 5821 5821 5820 5819 5818 5815
5728 5732 5734 5737 5739 5743 5746 5751 5755 5760 5763 5768 5772 5776 5779 5783 5787 5789 5793 5796 5799 5801 5802 5805 5807 5808 5811 5812 5813 5814 5815 5816 5819 5821 5820 5817 5816 5817 5817 5817 5817 5817 5816 5815 5812
5727 5730 5732 5737 5742 5745 5749 5753 5758 5763 5766 5771 5775 5779 5781 5784 5789 5791 5794 5796 5798 5800 5803 5806 5806 5808 5811 5810 5812 5815 5816 5816 5816 5818 5818 5816 5813 5812 5811 5811 5812 5815 5816 5814 5810
5724 5728 5731 5738 5742 5746 5751 5756 5760 5765 5768 5774 5776 5779 5782 5786 5789 5791 5793 5795 5798 5800 5804 5806 5806 5807 5808 5808 5810 5812 5812 5813 5813 5813 5815 5811 5810 5806 5806 5807 5808 5809 5807 5807 5804
5722 5725 5731 5738 5742 5748 5753 5758 5763 5768 5770 5773 5777 5780 5783 5786 5789 5791 5793 5794 5796 5800 5802 5802 5803 5805 5806 5807 5808 5810 5811 5810 5809 5809 5809 5806 5805 5802 5800 5801 5801 5801 5799 5799 5797
5720 5726 5732 5738 5743 5749 5755 5760 5765 5767 5772 5776 5778 5781 5784 5786 5788 5790 5792 5794 5796 5799 5799 5800 5801 5802 5804 5805 5805 5806 5806 5806 5806 5804 5803 5802 5800 5798 5795 5794 5793 5792 5791 5788 5785
5720 5726 5732 5737 5743 5750 5756 5762 5765 5767 5772 5775 5778 5781 5784 5786 5787 5789 5790 5792 5793 5794 5796 5798 5799 5800 5802 5803 5803 5803 5804 5804 5803 5802 5800 5798 5797 5795 5790 5788 5787 5783 5780 5778 5774
5719 5725 5731 5738 5744 5750 5756 5760 5764 5768 5772 5776 5778 5781 5783 5784 5786 5787 5788 5789 5790 5792 5795 5796 5797 5799 5800 5801 5802 5802 5802 5802 5801 5799 5797 5795 5792 5789 5785 5781 5778 5777 5777 5776 5771
5717 5724 5731 5737 5743 5750 5755 5760 5764 5769 5772 5775 5777 5779 5780 5781 5783 5784 5785 5786 5788 5790 5792 5794 5796 5798 5799 5799 5800 5800 5800 5800 5799 5797 5793 5789 5785 5782 5779 5775 5771 5769 5766 5763 5762
5716 5722 5729 5736 5743 5749 5754 5759 5764 5768 5771 5774 5776 5777 5778 5778 5779 5781 5783 5784 5785 5788 5790 5792 5795 5797 5798 5798 5798 5798 5797 5796 5795 5793 5791 5787 5781 5777 5773 5770 5765 5761 5758 5757 5753
5713 5721 5728 5735 5743 5748 5752 5758 5763 5767 5769 5772 5774 5774 5775 5776 5778 5779 5780 5782 5785 5786 5789 5791 5793 5794 5796 5796 5796 5795 5794 5792 5791 5790 5785 5782 5778 5772 5766 5762 5758 5754 5751 5747 5746
5712 5720 5728 5735 5742 5748 5751 5757 5761 5765 5768 5770 5772 5772 5773 5775 5777 5778 5779 5781 5782 5784 5787 5789 5790 5792 5793 5794 5793 5792 5790 5789 5787 5784 5781 5777 5775 5767 5761 5757 5754 5749 5745 5741 5738
5710 5718 5726 5734 5740 5745 5749 5756 5761 5763 5766 5768 5769 5769 5771 5773 5775 5776 5778 5779 5781 5783 5784 5786 5787 5789 5790 5790 5790 5788 5786 5783 5781 5778 5776 5773 5771 5767 5761 5756 5751 5746 5742 5738 5734
5708 5717 5726 5733 5739 5743 5748 5754 5758 5760 5763 5765 5766 5766 5769 5771 5773 5775 5777 5778 5779 5781 5782 5784 5785 5785 5785 5786 5785 5783 5782 5778 5775 5773 5770 5767 5763 5759 5755 5750 5745 5739 5735 5731 5727
5708 5715 5723 5730 5735 5740 5745 5751 5755 5757 5760 5762 5763 5764 5766 5770 5773 5772 5774 5776 5776 5778 5779 5780 5781 5781 5781 5781 5779 5778 5777 5774 5770 5768 5764 5758 5754 5750 5745 5740 5735 5731 5727 5722 5718
5704 5713 5720 5726 5733 5738 5744 5748 5752 5754 5756 5758 5760 5762 5764 5767 5768 5768 5769 5770 5772 5774 5774 5776 5776 5777 5777 5775 5774 5773 5771 5768 5764 5761 5757 5751 5747 5743 5737 5732 5727 5722 5718 5713 5708